Year,Month,Day,Hour,Minute,Value (Times are PST for windspeed in km/hr)
2011,07,07,00,00,0.00
2011,07,07,00,01,0.00
2011,07,07,00,02,0.00
2011,07,07,00,03,0.00
2011,07,07,00,04,0.00
2011,07,07,00,05,0.00
2011,07,07,00,06,0.10
2011,07,07,00,07,0.20
2011,07,07,00,08,0.10
2011,07,07,00,09,0.20
2011,07,07,00,10,0.40
2011,07,07,00,11,0.00
2011,07,07,00,12,0.00
2011,07,07,00,13,0.00
2011,07,07,00,14,0.20
2011,07,07,00,15,0.20
2011,07,07,00,16,0.00
2011,07,07,00,17,0.00
2011,07,07,00,18,0.00
2011,07,07,00,19,0.00
2011,07,07,00,20,0.00
2011,07,07,00,21,0.00
2011,07,07,00,22,0.00
2011,07,07,00,23,0.00
2011,07,07,00,24,0.00
2011,07,07,00,25,0.00
2011,07,07,00,26,0.00
2011,07,07,00,27,0.00
2011,07,07,00,28,0.00
2011,07,07,00,29,0.60
2011,07,07,00,30,0.00
2011,07,07,00,31,0.00
2011,07,07,00,32,0.00
2011,07,07,00,33,0.00
2011,07,07,00,34,0.10
2011,07,07,00,35,0.00
2011,07,07,00,36,0.00
2011,07,07,00,37,0.00
2011,07,07,00,38,0.00
2011,07,07,00,39,0.00
2011,07,07,00,40,0.00
2011,07,07,00,41,0.00
2011,07,07,00,42,0.00
2011,07,07,00,43,1.80
2011,07,07,00,44,4.20
2011,07,07,00,45,6.20
2011,07,07,00,46,4.70
2011,07,07,00,47,2.10
2011,07,07,00,48,0.80
2011,07,07,00,49,2.10
2011,07,07,00,50,1.80
2011,07,07,00,51,2.20
2011,07,07,00,52,0.90
2011,07,07,00,53,4.80
2011,07,07,00,54,1.70
2011,07,07,00,55,5.60
2011,07,07,00,56,4.30
2011,07,07,00,57,6.50
2011,07,07,00,58,4.90
2011,07,07,00,59,4.70
2011,07,07,01,00,3.20
2011,07,07,01,01,3.90
2011,07,07,01,02,3.30
2011,07,07,01,03,3.90
2011,07,07,01,04,5.00
2011,07,07,01,05,3.40
2011,07,07,01,06,2.40
2011,07,07,01,07,2.30
2011,07,07,01,08,6.10
2011,07,07,01,09,2.80
2011,07,07,01,10,2.50
2011,07,07,01,11,1.10
2011,07,07,01,12,2.60
2011,07,07,01,13,1.90
2011,07,07,01,14,3.60
2011,07,07,01,15,5.80
2011,07,07,01,16,5.50
2011,07,07,01,17,4.30
2011,07,07,01,18,3.00
2011,07,07,01,19,1.60
2011,07,07,01,20,0.90
2011,07,07,01,21,1.20
2011,07,07,01,22,0.70
2011,07,07,01,23,0.90
2011,07,07,01,24,3.90
2011,07,07,01,25,0.10
2011,07,07,01,26,1.90
2011,07,07,01,27,3.30
2011,07,07,01,28,4.90
2011,07,07,01,29,5.10
2011,07,07,01,30,4.60
2011,07,07,01,31,0.00
2011,07,07,01,32,0.00
2011,07,07,01,33,1.60
2011,07,07,01,34,0.30
2011,07,07,01,35,0.00
2011,07,07,01,36,0.20
2011,07,07,01,37,0.20
2011,07,07,01,38,0.20
2011,07,07,01,39,1.20
2011,07,07,01,40,3.00
2011,07,07,01,41,3.00
2011,07,07,01,42,2.90
2011,07,07,01,43,7.30
2011,07,07,01,44,0.70
2011,07,07,01,45,0.20
2011,07,07,01,46,0.60
2011,07,07,01,47,1.00
2011,07,07,01,48,3.50
2011,07,07,01,49,2.50
2011,07,07,01,50,0.70
2011,07,07,01,51,2.00
2011,07,07,01,52,0.20
2011,07,07,01,53,0.00
2011,07,07,01,54,0.20
2011,07,07,01,55,0.00
2011,07,07,01,56,0.00
2011,07,07,01,57,0.00
2011,07,07,01,58,0.20
2011,07,07,01,59,0.00
2011,07,07,02,00,0.80
2011,07,07,02,01,3.10
2011,07,07,02,02,0.00
2011,07,07,02,03,0.00
2011,07,07,02,04,0.00
2011,07,07,02,05,0.00
2011,07,07,02,06,0.00
2011,07,07,02,07,1.60
2011,07,07,02,08,0.40
2011,07,07,02,09,0.60
2011,07,07,02,10,1.90
2011,07,07,02,11,0.80
2011,07,07,02,12,3.50
2011,07,07,02,13,0.30
2011,07,07,02,14,1.70
2011,07,07,02,15,2.80
2011,07,07,02,16,2.20
2011,07,07,02,17,1.90
2011,07,07,02,18,0.90
2011,07,07,02,19,3.10
2011,07,07,02,20,0.80
2011,07,07,02,21,3.70
2011,07,07,02,22,2.10
2011,07,07,02,23,1.30
2011,07,07,02,24,1.70
2011,07,07,02,25,4.20
2011,07,07,02,26,4.80
2011,07,07,02,27,4.30
2011,07,07,02,28,2.20
2011,07,07,02,29,3.30
2011,07,07,02,30,4.70
2011,07,07,02,31,7.80
2011,07,07,02,32,8.10
2011,07,07,02,33,5.20
2011,07,07,02,34,6.50
2011,07,07,02,35,3.90
2011,07,07,02,36,2.30
2011,07,07,02,37,5.10
2011,07,07,02,38,4.40
2011,07,07,02,39,6.90
2011,07,07,02,40,3.10
2011,07,07,02,41,2.50
2011,07,07,02,42,3.70
2011,07,07,02,43,1.80
2011,07,07,02,44,0.40
2011,07,07,02,45,6.00
2011,07,07,02,46,3.70
2011,07,07,02,47,0.10
2011,07,07,02,48,0.60
2011,07,07,02,49,1.10
2011,07,07,02,50,1.60
2011,07,07,02,51,3.40
2011,07,07,02,52,2.00
2011,07,07,02,53,4.70
2011,07,07,02,54,6.90
2011,07,07,02,55,5.10
2011,07,07,02,56,5.40
2011,07,07,02,57,8.80
2011,07,07,02,58,5.70
2011,07,07,02,59,11.30
2011,07,07,03,00,9.20
2011,07,07,03,01,7.60
2011,07,07,03,02,6.60
2011,07,07,03,03,0.80
2011,07,07,03,04,1.00
2011,07,07,03,05,1.00
2011,07,07,03,06,4.80
2011,07,07,03,07,4.60
2011,07,07,03,08,5.70
2011,07,07,03,09,7.10
2011,07,07,03,10,5.50
2011,07,07,03,11,2.70
2011,07,07,03,12,2.70
2011,07,07,03,13,1.40
2011,07,07,03,14,0.40
2011,07,07,03,15,2.50
2011,07,07,03,16,1.70
2011,07,07,03,17,4.70
2011,07,07,03,18,4.70
2011,07,07,03,19,2.10
2011,07,07,03,20,1.40
2011,07,07,03,21,1.20
2011,07,07,03,22,2.30
2011,07,07,03,23,4.20
2011,07,07,03,24,4.00
2011,07,07,03,25,7.40
2011,07,07,03,26,3.70
2011,07,07,03,27,3.20
2011,07,07,03,28,0.60
2011,07,07,03,29,6.30
2011,07,07,03,30,4.30
2011,07,07,03,31,3.30
2011,07,07,03,32,3.50
2011,07,07,03,33,1.60
2011,07,07,03,34,3.30
2011,07,07,03,35,6.50
2011,07,07,03,36,7.30
2011,07,07,03,37,5.00
2011,07,07,03,38,5.60
2011,07,07,03,39,4.50
2011,07,07,03,40,4.40
2011,07,07,03,41,4.50
2011,07,07,03,42,4.10
2011,07,07,03,43,3.90
2011,07,07,03,44,4.50
2011,07,07,03,45,5.10
2011,07,07,03,46,7.10
2011,07,07,03,47,4.00
2011,07,07,03,48,4.00
2011,07,07,03,49,4.20
2011,07,07,03,50,7.90
2011,07,07,03,51,4.10
2011,07,07,03,52,3.10
2011,07,07,03,53,0.30
2011,07,07,03,54,3.40
2011,07,07,03,55,2.70
2011,07,07,03,56,3.50
2011,07,07,03,57,6.30
2011,07,07,03,58,6.90
2011,07,07,03,59,6.10
2011,07,07,04,00,5.40
2011,07,07,04,01,6.60
2011,07,07,04,02,6.20
2011,07,07,04,03,8.20
2011,07,07,04,04,6.20
2011,07,07,04,05,5.40
2011,07,07,04,06,6.20
2011,07,07,04,07,5.60
2011,07,07,04,08,9.00
2011,07,07,04,09,5.90
2011,07,07,04,10,8.10
2011,07,07,04,11,7.20
2011,07,07,04,12,6.00
2011,07,07,04,13,8.20
2011,07,07,04,14,7.20
2011,07,07,04,15,6.10
2011,07,07,04,16,10.40
2011,07,07,04,17,7.70
2011,07,07,04,18,4.00
2011,07,07,04,19,5.90
2011,07,07,04,20,4.50
2011,07,07,04,21,6.40
2011,07,07,04,22,8.70
2011,07,07,04,23,7.90
2011,07,07,04,24,6.80
2011,07,07,04,25,4.90
2011,07,07,04,26,6.90
2011,07,07,04,27,5.00
2011,07,07,04,28,5.70
2011,07,07,04,29,6.20
2011,07,07,04,30,4.90
2011,07,07,04,31,2.60
2011,07,07,04,32,4.00
2011,07,07,04,33,1.40
2011,07,07,04,34,4.70
2011,07,07,04,35,3.60
2011,07,07,04,36,5.10
2011,07,07,04,37,4.30
2011,07,07,04,38,4.50
2011,07,07,04,39,5.00
2011,07,07,04,40,5.00
2011,07,07,04,41,3.50
2011,07,07,04,42,1.00
2011,07,07,04,43,5.40
2011,07,07,04,44,4.10
2011,07,07,04,45,4.70
2011,07,07,04,46,5.00
2011,07,07,04,47,1.20
2011,07,07,04,48,4.70
2011,07,07,04,49,3.00
2011,07,07,04,50,3.10
2011,07,07,04,51,2.10
2011,07,07,04,52,1.90
2011,07,07,04,53,2.80
2011,07,07,04,54,4.60
2011,07,07,04,55,3.50
2011,07,07,04,56,4.70
2011,07,07,04,57,3.90
2011,07,07,04,58,4.80
2011,07,07,04,59,4.30
2011,07,07,05,00,2.30
2011,07,07,05,01,2.00
2011,07,07,05,02,2.30
2011,07,07,05,03,0.80
2011,07,07,05,04,0.10
2011,07,07,05,05,3.30
2011,07,07,05,06,1.90
2011,07,07,05,07,4.50
2011,07,07,05,08,1.50
2011,07,07,05,09,0.30
2011,07,07,05,10,4.70
2011,07,07,05,11,3.30
2011,07,07,05,12,5.30
2011,07,07,05,13,1.40
2011,07,07,05,14,2.00
2011,07,07,05,15,1.20
2011,07,07,05,16,0.20
2011,07,07,05,17,4.80
2011,07,07,05,18,3.20
2011,07,07,05,19,0.80
2011,07,07,05,20,5.10
2011,07,07,05,21,0.70
2011,07,07,05,22,2.00
2011,07,07,05,23,0.80
2011,07,07,05,24,1.40
2011,07,07,05,25,0.20
2011,07,07,05,26,0.10
2011,07,07,05,27,1.30
2011,07,07,05,28,2.00
2011,07,07,05,29,0.50
2011,07,07,05,30,0.80
2011,07,07,05,31,1.60
2011,07,07,05,32,2.00
2011,07,07,05,33,5.20
2011,07,07,05,34,4.90
2011,07,07,05,35,3.60
2011,07,07,05,36,2.70
2011,07,07,05,37,2.10
2011,07,07,05,38,5.70
2011,07,07,05,39,6.60
2011,07,07,05,40,7.30
2011,07,07,05,41,5.30
2011,07,07,05,42,3.80
2011,07,07,05,43,5.10
2011,07,07,05,44,4.10
2011,07,07,05,45,7.90
2011,07,07,05,46,4.40
2011,07,07,05,47,5.60
2011,07,07,05,48,4.40
2011,07,07,05,49,5.10
2011,07,07,05,50,4.00
2011,07,07,05,51,3.90
2011,07,07,05,52,4.90
2011,07,07,05,53,6.10
2011,07,07,05,54,5.90
2011,07,07,05,55,5.10
2011,07,07,05,56,4.30
2011,07,07,05,57,2.80
2011,07,07,05,58,4.40
2011,07,07,05,59,7.60
2011,07,07,06,00,5.20
2011,07,07,06,01,3.30
2011,07,07,06,02,0.80
2011,07,07,06,03,3.10
2011,07,07,06,04,3.50
2011,07,07,06,05,2.40
2011,07,07,06,06,4.50
2011,07,07,06,07,4.00
2011,07,07,06,08,2.90
2011,07,07,06,09,0.80
2011,07,07,06,10,0.30
2011,07,07,06,11,2.40
2011,07,07,06,12,3.30
2011,07,07,06,13,2.50
2011,07,07,06,14,4.10
2011,07,07,06,15,4.60
2011,07,07,06,16,3.90
2011,07,07,06,17,3.70
2011,07,07,06,18,1.20
2011,07,07,06,19,5.00
2011,07,07,06,20,5.30
2011,07,07,06,21,4.00
2011,07,07,06,22,5.60
2011,07,07,06,23,6.20
2011,07,07,06,24,4.50
2011,07,07,06,25,4.30
2011,07,07,06,26,3.50
2011,07,07,06,27,3.80
2011,07,07,06,28,2.40
2011,07,07,06,29,3.60
2011,07,07,06,30,1.20
2011,07,07,06,31,2.10
2011,07,07,06,32,3.60
2011,07,07,06,33,2.50
2011,07,07,06,34,1.10
2011,07,07,06,35,2.00
2011,07,07,06,36,1.10
2011,07,07,06,37,1.40
2011,07,07,06,38,0.40
2011,07,07,06,39,2.00
2011,07,07,06,40,1.40
2011,07,07,06,41,4.30
2011,07,07,06,42,4.50
2011,07,07,06,43,5.70
2011,07,07,06,44,7.30
2011,07,07,06,45,3.90
2011,07,07,06,46,7.50
2011,07,07,06,47,6.30
2011,07,07,06,48,7.10
2011,07,07,06,49,9.10
2011,07,07,06,50,10.50
2011,07,07,06,51,11.10
2011,07,07,06,52,11.80
2011,07,07,06,53,12.90
2011,07,07,06,54,13.50
2011,07,07,06,55,10.80
2011,07,07,06,56,11.10
2011,07,07,06,57,12.80
2011,07,07,06,58,8.70
2011,07,07,06,59,11.00
2011,07,07,07,00,10.20
2011,07,07,07,01,9.20
2011,07,07,07,02,8.30
2011,07,07,07,03,9.30
2011,07,07,07,04,8.60
2011,07,07,07,05,10.20
2011,07,07,07,06,10.20
2011,07,07,07,07,8.80
2011,07,07,07,08,10.80
2011,07,07,07,09,8.90
2011,07,07,07,10,10.80
2011,07,07,07,11,8.00
2011,07,07,07,12,10.00
2011,07,07,07,13,5.90
2011,07,07,07,14,6.70
2011,07,07,07,15,6.00
2011,07,07,07,16,11.30
2011,07,07,07,17,9.40
2011,07,07,07,18,9.20
2011,07,07,07,19,10.80
2011,07,07,07,20,12.80
2011,07,07,07,21,7.70
2011,07,07,07,22,6.00
2011,07,07,07,23,8.80
2011,07,07,07,24,4.10
2011,07,07,07,25,9.70
2011,07,07,07,26,9.50
2011,07,07,07,27,9.20
2011,07,07,07,28,8.10
2011,07,07,07,29,8.60
2011,07,07,07,30,7.70
2011,07,07,07,31,8.40
2011,07,07,07,32,8.90
2011,07,07,07,33,8.60
2011,07,07,07,34,8.70
2011,07,07,07,35,8.00
2011,07,07,07,36,10.40
2011,07,07,07,37,9.10
2011,07,07,07,38,7.40
2011,07,07,07,39,9.30
2011,07,07,07,40,7.00
2011,07,07,07,41,6.20
2011,07,07,07,42,8.30
2011,07,07,07,43,5.60
2011,07,07,07,44,4.90
2011,07,07,07,45,9.00
2011,07,07,07,46,12.50
2011,07,07,07,47,6.80
2011,07,07,07,48,5.70
2011,07,07,07,49,4.90
2011,07,07,07,50,7.80
2011,07,07,07,51,8.80
2011,07,07,07,52,7.20
2011,07,07,07,53,8.40
2011,07,07,07,54,7.10
2011,07,07,07,55,2.80
2011,07,07,07,56,8.40
2011,07,07,07,57,6.20
2011,07,07,07,58,6.80
2011,07,07,07,59,4.90
2011,07,07,08,00,7.70
2011,07,07,08,01,8.20
2011,07,07,08,02,7.40
2011,07,07,08,03,6.60
2011,07,07,08,04,10.80
2011,07,07,08,05,8.20
2011,07,07,08,06,11.90
2011,07,07,08,07,8.10
2011,07,07,08,08,8.00
2011,07,07,08,09,8.50
2011,07,07,08,10,8.10
2011,07,07,08,11,5.00
2011,07,07,08,12,7.70
2011,07,07,08,13,9.50
2011,07,07,08,14,7.80
2011,07,07,08,15,5.20
2011,07,07,08,16,8.40
2011,07,07,08,17,9.30
2011,07,07,08,18,5.60
2011,07,07,08,19,8.00
2011,07,07,08,20,9.50
2011,07,07,08,21,4.90
2011,07,07,08,22,5.40
2011,07,07,08,23,3.50
2011,07,07,08,24,6.50
2011,07,07,08,25,8.80
2011,07,07,08,26,8.50
2011,07,07,08,27,6.90
2011,07,07,08,28,9.60
2011,07,07,08,29,10.40
2011,07,07,08,30,7.00
2011,07,07,08,31,8.60
2011,07,07,08,32,7.30
2011,07,07,08,33,6.90
2011,07,07,08,34,7.10
2011,07,07,08,35,9.70
2011,07,07,08,36,7.10
2011,07,07,08,37,3.90
2011,07,07,08,38,4.10
2011,07,07,08,39,6.10
2011,07,07,08,40,8.50
2011,07,07,08,41,11.50
2011,07,07,08,42,7.80
2011,07,07,08,43,14.40
2011,07,07,08,44,8.90
2011,07,07,08,45,10.10
2011,07,07,08,46,6.70
2011,07,07,08,47,8.30
2011,07,07,08,48,7.60
2011,07,07,08,49,3.70
2011,07,07,08,50,2.60
2011,07,07,08,51,7.50
2011,07,07,08,52,4.30
2011,07,07,08,53,9.80
2011,07,07,08,54,11.80
2011,07,07,08,55,10.90
2011,07,07,08,56,11.60
2011,07,07,08,57,9.10
2011,07,07,08,58,4.20
2011,07,07,08,59,10.30
2011,07,07,09,00,11.80
2011,07,07,09,01,10.10
2011,07,07,09,02,8.70
2011,07,07,09,03,12.40
2011,07,07,09,04,9.20
2011,07,07,09,05,7.20
2011,07,07,09,06,7.70
2011,07,07,09,07,12.60
2011,07,07,09,08,9.90
2011,07,07,09,09,11.20
2011,07,07,09,10,14.20
2011,07,07,09,11,10.70
2011,07,07,09,12,11.30
2011,07,07,09,13,8.70
2011,07,07,09,14,11.10
2011,07,07,09,15,19.40
2011,07,07,09,16,16.50
2011,07,07,09,17,11.10
2011,07,07,09,18,13.00
2011,07,07,09,19,9.70
2011,07,07,09,20,11.00
2011,07,07,09,21,10.30
2011,07,07,09,22,8.30
2011,07,07,09,23,7.20
2011,07,07,09,24,9.80
2011,07,07,09,25,9.80
2011,07,07,09,26,12.10
2011,07,07,09,27,7.80
2011,07,07,09,28,10.80
2011,07,07,09,29,10.10
2011,07,07,09,30,9.70
2011,07,07,09,31,7.70
2011,07,07,09,32,10.10
2011,07,07,09,33,6.30
2011,07,07,09,34,5.80
2011,07,07,09,35,7.50
2011,07,07,09,36,14.60
2011,07,07,09,37,15.80
2011,07,07,09,38,7.10
2011,07,07,09,39,7.80
2011,07,07,09,40,6.00
2011,07,07,09,41,11.40
2011,07,07,09,42,5.60
2011,07,07,09,43,5.30
2011,07,07,09,44,10.10
2011,07,07,09,45,9.10
2011,07,07,09,46,13.00
2011,07,07,09,47,8.10
2011,07,07,09,48,9.00
2011,07,07,09,49,8.60
2011,07,07,09,50,12.80
2011,07,07,09,51,11.90
2011,07,07,09,52,13.60
2011,07,07,09,53,6.90
2011,07,07,09,54,9.20
2011,07,07,09,55,12.60
2011,07,07,09,56,4.90
2011,07,07,09,57,9.00
2011,07,07,09,58,11.70
2011,07,07,09,59,14.20
2011,07,07,10,00,13.80
2011,07,07,10,01,11.40
2011,07,07,10,02,12.00
2011,07,07,10,03,10.90
2011,07,07,10,04,11.30
2011,07,07,10,05,10.60
2011,07,07,10,06,18.00
2011,07,07,10,07,10.10
2011,07,07,10,08,8.40
2011,07,07,10,09,7.60
2011,07,07,10,10,7.90
2011,07,07,10,11,8.00
2011,07,07,10,12,7.50
2011,07,07,10,13,11.10
2011,07,07,10,14,10.30
2011,07,07,10,15,10.70
2011,07,07,10,16,16.80
2011,07,07,10,17,11.50
2011,07,07,10,18,9.00
2011,07,07,10,19,10.50
2011,07,07,10,20,12.30
2011,07,07,10,21,14.40
2011,07,07,10,22,13.00
2011,07,07,10,23,17.40
2011,07,07,10,24,12.50
2011,07,07,10,25,7.80
2011,07,07,10,26,10.70
2011,07,07,10,27,7.90
2011,07,07,10,28,6.10
2011,07,07,10,29,16.50
2011,07,07,10,30,11.90
2011,07,07,10,31,8.30
2011,07,07,10,32,13.20
2011,07,07,10,33,8.00
2011,07,07,10,34,9.10
2011,07,07,10,35,9.10
2011,07,07,10,36,7.50
2011,07,07,10,37,10.80
2011,07,07,10,38,9.30
2011,07,07,10,39,9.60
2011,07,07,10,40,15.50
2011,07,07,10,41,11.90
2011,07,07,10,42,14.60
2011,07,07,10,43,8.10
2011,07,07,10,44,13.30
2011,07,07,10,45,6.70
2011,07,07,10,46,9.20
2011,07,07,10,47,7.20
2011,07,07,10,48,11.30
2011,07,07,10,49,13.40
2011,07,07,10,50,9.40
2011,07,07,10,51,15.90
2011,07,07,10,52,11.80
2011,07,07,10,53,11.10
2011,07,07,10,54,10.20
2011,07,07,10,55,20.70
2011,07,07,10,56,13.00
2011,07,07,10,57,10.30
2011,07,07,10,58,16.30
2011,07,07,10,59,15.70
2011,07,07,11,00,12.80
2011,07,07,11,01,14.80
2011,07,07,11,02,11.60
2011,07,07,11,03,18.00
2011,07,07,11,04,16.90
2011,07,07,11,05,21.40
2011,07,07,11,06,19.60
2011,07,07,11,07,20.00
2011,07,07,11,08,15.00
2011,07,07,11,09,11.00
2011,07,07,11,10,9.70
2011,07,07,11,11,18.20
2011,07,07,11,12,16.70
2011,07,07,11,13,15.60
2011,07,07,11,14,14.30
2011,07,07,11,15,18.90
2011,07,07,11,16,17.80
2011,07,07,11,17,18.00
2011,07,07,11,18,23.40
2011,07,07,11,19,17.10
2011,07,07,11,20,21.50
2011,07,07,11,21,19.10
2011,07,07,11,22,20.20
2011,07,07,11,23,15.70
2011,07,07,11,24,17.70
2011,07,07,11,25,16.00
2011,07,07,11,26,18.30
2011,07,07,11,27,15.30
2011,07,07,11,28,13.10
2011,07,07,11,29,17.50
2011,07,07,11,30,13.10
2011,07,07,11,31,23.00
2011,07,07,11,32,16.80
2011,07,07,11,33,22.00
2011,07,07,11,34,24.00
2011,07,07,11,35,13.30
2011,07,07,11,36,19.20
2011,07,07,11,37,19.20
2011,07,07,11,38,16.90
2011,07,07,11,39,13.00
2011,07,07,11,40,11.90
2011,07,07,11,41,11.10
2011,07,07,11,42,19.60
2011,07,07,11,43,10.80
2011,07,07,11,44,16.80
2011,07,07,11,45,19.80
2011,07,07,11,46,12.20
2011,07,07,11,47,17.30
2011,07,07,11,48,21.60
2011,07,07,11,49,17.40
2011,07,07,11,50,14.70
2011,07,07,11,51,9.30
2011,07,07,11,52,15.70
2011,07,07,11,53,21.10
2011,07,07,11,54,22.60
2011,07,07,11,55,19.20
2011,07,07,11,56,16.80
2011,07,07,11,57,14.20
2011,07,07,11,58,10.90
2011,07,07,11,59,13.70
2011,07,07,12,00,18.60
2011,07,07,12,01,19.30
2011,07,07,12,02,18.50
2011,07,07,12,03,17.50
2011,07,07,12,04,22.30
2011,07,07,12,05,14.30
2011,07,07,12,06,15.10
2011,07,07,12,07,19.50
2011,07,07,12,08,21.70
2011,07,07,12,09,20.80
2011,07,07,12,10,23.70
2011,07,07,12,11,18.00
2011,07,07,12,12,29.30
2011,07,07,12,13,22.40
2011,07,07,12,14,19.60
2011,07,07,12,15,15.70
2011,07,07,12,16,15.10
2011,07,07,12,17,21.90
2011,07,07,12,18,26.00
2011,07,07,12,19,18.30
2011,07,07,12,20,11.10
2011,07,07,12,21,14.20
2011,07,07,12,22,16.90
2011,07,07,12,23,18.80
2011,07,07,12,24,23.80
2011,07,07,12,25,14.90
2011,07,07,12,26,25.30
2011,07,07,12,27,24.90
2011,07,07,12,28,23.00
2011,07,07,12,29,23.40
2011,07,07,12,30,22.10
2011,07,07,12,31,22.90
2011,07,07,12,32,22.40
2011,07,07,12,33,20.70
2011,07,07,12,34,28.90
2011,07,07,12,35,22.90
2011,07,07,12,36,21.80
2011,07,07,12,37,25.80
2011,07,07,12,38,20.50
2011,07,07,12,39,20.50
2011,07,07,12,40,24.30
2011,07,07,12,41,25.30
2011,07,07,12,42,22.40
2011,07,07,12,43,21.60
2011,07,07,12,44,23.20
2011,07,07,12,45,14.20
2011,07,07,12,46,19.90
2011,07,07,12,47,17.20
2011,07,07,12,48,21.40
2011,07,07,12,49,13.00
2011,07,07,12,50,18.80
2011,07,07,12,51,18.40
2011,07,07,12,52,21.70
2011,07,07,12,53,22.80
2011,07,07,12,54,13.70
2011,07,07,12,55,18.30
2011,07,07,12,56,25.20
2011,07,07,12,57,22.40
2011,07,07,12,58,24.40
2011,07,07,12,59,15.80
2011,07,07,13,00,25.70
2011,07,07,13,01,15.90
2011,07,07,13,02,14.70
2011,07,07,13,03,22.80
2011,07,07,13,04,24.70
2011,07,07,13,05,24.10
2011,07,07,13,06,19.30
2011,07,07,13,07,18.90
2011,07,07,13,08,27.70
2011,07,07,13,09,23.50
2011,07,07,13,10,20.90
2011,07,07,13,11,16.80
2011,07,07,13,12,21.30
2011,07,07,13,13,19.10
2011,07,07,13,14,27.50
2011,07,07,13,15,24.10
2011,07,07,13,16,24.90
2011,07,07,13,17,23.70
2011,07,07,13,18,23.40
2011,07,07,13,19,25.40
2011,07,07,13,20,20.70
2011,07,07,13,21,19.00
2011,07,07,13,22,22.40
2011,07,07,13,23,22.40
2011,07,07,13,24,16.30
2011,07,07,13,25,24.30
2011,07,07,13,26,19.00
2011,07,07,13,27,24.80
2011,07,07,13,28,24.00
2011,07,07,13,29,22.10
2011,07,07,13,30,20.70
2011,07,07,13,31,22.60
2011,07,07,13,32,23.70
2011,07,07,13,33,20.20
2011,07,07,13,34,19.40
2011,07,07,13,35,23.20
2011,07,07,13,36,23.30
2011,07,07,13,37,17.30
2011,07,07,13,38,14.40
2011,07,07,13,39,13.00
2011,07,07,13,40,20.20
2011,07,07,13,41,17.20
2011,07,07,13,42,18.70
2011,07,07,13,43,17.00
2011,07,07,13,44,11.80
2011,07,07,13,45,24.70
2011,07,07,13,46,19.80
2011,07,07,13,47,21.50
2011,07,07,13,48,30.00
2011,07,07,13,49,29.00
2011,07,07,13,50,28.00
2011,07,07,13,51,27.80
2011,07,07,13,52,26.40
2011,07,07,13,53,25.50
2011,07,07,13,54,15.50
2011,07,07,13,55,18.00
2011,07,07,13,56,23.90
2011,07,07,13,57,22.80
2011,07,07,13,58,21.60
2011,07,07,13,59,18.50
2011,07,07,14,00,19.70
2011,07,07,14,01,11.30
2011,07,07,14,02,15.90
2011,07,07,14,03,13.70
2011,07,07,14,04,26.70
2011,07,07,14,05,20.20
2011,07,07,14,06,19.20
2011,07,07,14,07,18.60
2011,07,07,14,08,18.00
2011,07,07,14,09,21.60
2011,07,07,14,10,20.60
2011,07,07,14,11,17.40
2011,07,07,14,12,18.80
2011,07,07,14,13,20.20
2011,07,07,14,14,23.70
2011,07,07,14,15,19.70
2011,07,07,14,16,20.70
2011,07,07,14,17,28.70
2011,07,07,14,18,26.80
2011,07,07,14,19,20.40
2011,07,07,14,20,17.00
2011,07,07,14,21,21.50
2011,07,07,14,22,13.60
2011,07,07,14,23,16.20
2011,07,07,14,24,20.30
2011,07,07,14,25,21.00
2011,07,07,14,26,19.50
2011,07,07,14,27,16.70
2011,07,07,14,28,12.20
2011,07,07,14,29,22.00
2011,07,07,14,30,24.70
2011,07,07,14,31,18.60
2011,07,07,14,32,27.50
2011,07,07,14,33,23.20
2011,07,07,14,34,21.90
2011,07,07,14,35,22.60
2011,07,07,14,36,19.30
2011,07,07,14,37,21.00
2011,07,07,14,38,24.60
2011,07,07,14,39,22.30
2011,07,07,14,40,18.30
2011,07,07,14,41,18.00
2011,07,07,14,42,13.80
2011,07,07,14,43,18.10
2011,07,07,14,44,20.90
2011,07,07,14,45,17.10
2011,07,07,14,46,24.30
2011,07,07,14,47,23.80
2011,07,07,14,48,17.10
2011,07,07,14,49,17.90
2011,07,07,14,50,19.20
2011,07,07,14,51,18.10
2011,07,07,14,52,25.80
2011,07,07,14,53,18.10
2011,07,07,14,54,14.10
2011,07,07,14,55,11.70
2011,07,07,14,56,17.40
2011,07,07,14,57,19.00
2011,07,07,14,58,22.20
2011,07,07,14,59,18.70
2011,07,07,15,00,24.40
2011,07,07,15,01,24.70
2011,07,07,15,02,27.50
2011,07,07,15,03,22.30
2011,07,07,15,04,20.20
2011,07,07,15,05,21.40
2011,07,07,15,06,21.00
2011,07,07,15,07,11.90
2011,07,07,15,08,11.30
2011,07,07,15,09,16.10
2011,07,07,15,10,22.10
2011,07,07,15,11,24.10
2011,07,07,15,12,17.00
2011,07,07,15,13,25.80
2011,07,07,15,14,24.60
2011,07,07,15,15,21.80
2011,07,07,15,16,21.60
2011,07,07,15,17,20.80
2011,07,07,15,18,16.20
2011,07,07,15,19,12.30
2011,07,07,15,20,12.50
2011,07,07,15,21,24.10
2011,07,07,15,22,19.10
2011,07,07,15,23,17.40
2011,07,07,15,24,21.30
2011,07,07,15,25,19.60
2011,07,07,15,26,21.40
2011,07,07,15,27,16.30
2011,07,07,15,28,12.10
2011,07,07,15,29,16.30
2011,07,07,15,30,19.40
2011,07,07,15,31,12.60
2011,07,07,15,32,22.20
2011,07,07,15,33,25.70
2011,07,07,15,34,18.90
2011,07,07,15,35,21.10
2011,07,07,15,36,25.80
2011,07,07,15,37,19.60
2011,07,07,15,38,20.20
2011,07,07,15,39,22.40
2011,07,07,15,40,23.50
2011,07,07,15,41,17.10
2011,07,07,15,42,22.20
2011,07,07,15,43,19.60
2011,07,07,15,44,20.50
2011,07,07,15,45,17.50
2011,07,07,15,46,21.50
2011,07,07,15,47,21.90
2011,07,07,15,48,19.50
2011,07,07,15,49,24.90
2011,07,07,15,50,23.70
2011,07,07,15,51,23.10
2011,07,07,15,52,19.60
2011,07,07,15,53,14.50
2011,07,07,15,54,15.70
2011,07,07,15,55,23.20
2011,07,07,15,56,15.10
2011,07,07,15,57,14.80
2011,07,07,15,58,23.30
2011,07,07,15,59,21.00
2011,07,07,16,00,16.60
2011,07,07,16,01,14.80
2011,07,07,16,02,24.70
2011,07,07,16,03,23.30
2011,07,07,16,04,14.90
2011,07,07,16,05,18.40
2011,07,07,16,06,24.50
2011,07,07,16,07,20.10
2011,07,07,16,08,25.30
2011,07,07,16,09,20.50
2011,07,07,16,10,17.20
2011,07,07,16,11,25.20
2011,07,07,16,12,23.70
2011,07,07,16,13,22.20
2011,07,07,16,14,22.90
2011,07,07,16,15,28.80
2011,07,07,16,16,24.10
2011,07,07,16,17,25.60
2011,07,07,16,18,24.10
2011,07,07,16,19,29.60
2011,07,07,16,20,27.40
2011,07,07,16,21,32.20
2011,07,07,16,22,20.00
2011,07,07,16,23,20.70
2011,07,07,16,24,21.70
2011,07,07,16,25,24.70
2011,07,07,16,26,25.40
2011,07,07,16,27,26.50
2011,07,07,16,28,30.30
2011,07,07,16,29,36.30
2011,07,07,16,30,21.70
2011,07,07,16,31,31.00
2011,07,07,16,32,31.90
2011,07,07,16,33,34.30
2011,07,07,16,34,26.00
2011,07,07,16,35,26.10
2011,07,07,16,36,34.20
2011,07,07,16,37,30.70
2011,07,07,16,38,27.00
2011,07,07,16,39,30.10
2011,07,07,16,40,28.50
2011,07,07,16,41,25.20
2011,07,07,16,42,31.80
2011,07,07,16,43,26.40
2011,07,07,16,44,29.00
2011,07,07,16,45,23.60
2011,07,07,16,46,27.20
2011,07,07,16,47,20.80
2011,07,07,16,48,33.90
2011,07,07,16,49,25.30
2011,07,07,16,50,31.30
2011,07,07,16,51,36.20
2011,07,07,16,52,36.20
2011,07,07,16,53,31.70
2011,07,07,16,54,32.60
2011,07,07,16,55,26.70
2011,07,07,16,56,28.00
2011,07,07,16,57,26.90
2011,07,07,16,58,26.20
2011,07,07,16,59,38.40
2011,07,07,17,00,23.20
2011,07,07,17,01,25.70
2011,07,07,17,02,29.70
2011,07,07,17,03,28.10
2011,07,07,17,04,34.60
2011,07,07,17,05,31.40
2011,07,07,17,06,26.30
2011,07,07,17,07,28.10
2011,07,07,17,08,27.90
2011,07,07,17,09,19.30
2011,07,07,17,10,23.60
2011,07,07,17,11,26.30
2011,07,07,17,12,25.20
2011,07,07,17,13,22.40
2011,07,07,17,14,24.00
2011,07,07,17,15,23.20
2011,07,07,17,16,27.80
2011,07,07,17,17,31.70
2011,07,07,17,18,29.70
2011,07,07,17,19,17.70
2011,07,07,17,20,21.60
2011,07,07,17,21,23.80
2011,07,07,17,22,28.80
2011,07,07,17,23,21.90
2011,07,07,17,24,28.00
2011,07,07,17,25,24.30
2011,07,07,17,26,19.10
2011,07,07,17,27,26.40
2011,07,07,17,28,29.70
2011,07,07,17,29,24.70
2011,07,07,17,30,25.00
2011,07,07,17,31,27.70
2011,07,07,17,32,37.10
2011,07,07,17,33,24.30
2011,07,07,17,34,24.20
2011,07,07,17,35,19.20
2011,07,07,17,36,34.70
2011,07,07,17,37,29.30
2011,07,07,17,38,24.70
2011,07,07,17,39,31.30
2011,07,07,17,40,30.40
2011,07,07,17,41,23.20
2011,07,07,17,42,24.60
2011,07,07,17,43,28.00